RH
92 91 90 90 87 83 79 78 78 77 77 79 80 83 85 86 90 86 87 95 95 98 94 86 59 57 47 46 86 87 84 87 96 96 100 94 86 71 77 65 68 67 87 98 96 91 73 50 41 45 52 61 68 72
91 90 89 86 81 78 78 77 78 78 80 81 82 82 86 89 85 79 95 91 91 99 97 92 89 87 52 36 68 88 67 83 89 95 99 99 98 94 80 90 69 74 63 80 78 78 59 62 54 61 58 64 67 70
88 87 82 77 77 77 78 79 80 82 89 84 86 93 90 84 84 78 94 94 94 98 96 99 96 74 68 70 69 86 88 79 87 88 97 98 86 90 86 87 73 64 69 79 74 63 72 73 72 68 68 73 71 71
82 80 80 79 80 81 81 84 88 87 93 91 91 90 86 84 88 80 95 97 96 98 100 94 85 76 67 80 77 73 78 90 92 94 100 100 92 78 87 66 71 67 59 64 87 82 74 75 77 76 64 64 63 61
88 86 83 82 82 87 88 91 92 92 90 91 89 91 91 91 91 93 96 91 96 100 100 98 92 77 74 85 88 80 82 92 98 94 100 96 92 86 89 79 75 60 60 73 80 71 74 83 81 68 65 67 67 69
86 87 88 88 89 89 89 90 91 92 91 90 89 88 89 91 87 92 97 95 92 96 100 100 96 92 88 86 87 90 92 95 98 99 100 93 84 84 89 87 70 71 72 67 81 77 78 75 69 62 69 72 70 72
91 90 90 90 90 90 91 92 92 93 91 90 87 91 88 89 92 91 94 96 82 96 99 100 100 96 88 89 96 97 95 99 96 99 100 97 96 92 99 91 75 78 72 68 63 64 73 71 82 76 76 76 73 71
89 88 89 90 89 90 93 94 93 93 92 90 90 88 86 92 92 93 98 99 93 95 98 100 99 98 86 99 100 97 99 98 98 98 99 99 96 98 94 84 77 72 71 69 73 69 71 74 76 77 72 72 79 80
88 90 93 93 93 94 94 93 93 93 92 92 91 96 97 98 99 93 99 99 99 99 100 100 100 100 89 99 98 96 98 100 99 100 99 94 99 95 89 82 74 71 78 82 76 74 75 80 79 77 76 80 72 72
94 92 90 88 87 87 90 90 86 90 92 93 93 98 100 98 94 87 92 99 98 100 100 100 99 100 95 100 100 99 100 100 100 98 91 97 99 87 86 83 77 74 75 77 88 95 88 86 82 79 77 70 69 74
91 94 90 86 86 86 86 89 88 88 92 96 99 100 100 98 97 99 100 100 99 97 98 98 96 99 98 99 100 100 100 99 99 96 97 100 99 90 85 86 70 70 74 78 74 76 72 75 76 80 82 83 86 87
92 92 91 94 94 94 92 85 90 96 94 94 96 98 98 98 100 100 100 98 96 97 98 100 100 99 100 96 99 100 98 99 97 93 99 99 95 90 84 86 80 74 76 76 72 69 65 66 71 78 79 81 86 81
97 97 95 93 96 95 92 87 89 86 98 93 95 100 100 100 99 97 99 98 97 99 99 99 100 100 99 97 100 100 99 98 96 98 97 96 92 85 86 81 77 70 70 64 60 67 75 80 80 76 78 80 83 81
95 96 98 98 96 94 94 93 93 97 92 99 100 99 100 99 99 99 99 100 99 100 100 99 100 99 100 100 100 99 99 96 99 99 95 98 91 88 84 75 72 81 84 82 82 83 86 86 88 87 84 84 84 75
94 93 92 96 95 96 97 96 86 88 97 99 98 99 99 99 99 100 100 100 100 100 100 99 99 98 100 99 99 99 99 99 95 94 99 98 91 86 80 77 82 88 88 84 82 87 88 84 78 78 77 73 82 89
90 86 94 94 94 94 94 86 90 93 99 98 98 99 99 99 100 100 100 100 100 100 99 97 96 95 100 98 96 97 95 96 99 100 98 90 83 78 76 79 81 83 83 81 79 78 78 80 78 73 71 75 89 88
87 98 91 90 90 84 85 92 94 99 99 97 99 99 100 99 100 100 100 100 99 100 100 98 90 98 98 97 99 100 100 99 100 100 94 80 80 80 84 89 90 87 85 83 79 75 70 67 77 75 70 66 67 74
90 87 86 83 85 88 95 96 96 93 99 99 97 99 99 99 99 99 100 100 100 100 97 98 95 95 99 99 99 100 99 99 99 94 86 79 78 80 79 87 83 80 80 77 73 72 67 70 62 67 69 66 75 80
86 85 85 83 83 93 98 99 95 98 99 100 100 100 100 100 99 99 99 99 97 94 96 94 93 97 98 98 99 99 99 99 98 98 98 98 98 97 98 97 83 79 75 72 71 70 69 66 69 73 79 80 90 94
78 83 87 85 80 92 96 99 92 98 99 99 100 99 99 99 99 98 96 96 90 96 96 96 97 97 98 99 99 99 99 99 97 97 98 98 98 96 96 92 84 71 66 66 68 73 73 77 73 80 87 88 95 99
85 88 89 86 92 93 98 99 99 99 99 99 100 99 99 93 95 96 93 86 88 97 96 97 98 98 98 98 98 98 99 97 98 92 94 96 97 94 95 96 94 92 92 93 94 94 95 93 89 92 96 97 97 98
94 86 97 90 92 92 96 97 99 100 99 99 99 99 99 98 97 95 79 91 96 97 97 96 95 95 93 95 96 98 98 96 96 94 95 92 94 93 94 94 92 95 94 96 92 95 92 88 92 95 98 97 96 96
84 87 92 86 85 87 93 93 95 99 98 99 99 98 98 98 99 91 96 92 94 95 97 96 95 95 94 94 88 92 90 84 90 90 89 91 91 92 91 92 91 94 94 94 85 89 94 91 93 96 96 95 97 97
80 93 98 97 92 100 92 91 91 97 98 98 97 97 97 98 91 92 95 94 94 91 91 95 93 89 84 82 89 92 93 84 86 90 92 89 90 92 89 91 91 93 93 92 92 94 93 96 94 94 95 97 99 99
82 89 86 86 90 86 91 91 92 92 97 96 96 97 97 93 96 96 95 91 93 94 94 90 85 85 88 90 89 92 91 85 88 90 93 92 92 92 91 89 90 92 89 94 96 96 97 96 96 96 96 100 96 98
86 98 90 93 94 95 97 92 95 93 97 97 97 98 94 92 92 97 88 95 97 93 96 96 93 90 91 88 90 90 94 92 81 89 91 90 92 93 95 94 94 95 91 96 97 97 98 98 99 98 100 99 100 100
96 98 94 92 97 92 94 95 92 95 98 98 97 96 93 97 99 93 90 91 90 94 93 92 86 88 91 91 91 93 93 89 89 89 85 82 82 81 89 94 94 95 96 94 97 99 100 100 100 100 100 100 100 100
98 98 98 94 94 94 99 100 98 98 98 94 89 98 99 99 97 94 95 95 95 90 91 91 90 89 92 94 93 95 96 97 92 89 86 87 87 93 97 98 98 99 100 99 99 100 100 100 100 100 100 100 100 99
97 98 90 96 96 97 98 98 98 96 91 94 99 100 99 93 96 96 96 96 93 92 94 94 96 93 92 91 90 89 89 95 91 99 100 100 100 98 97 97 98 100 100 99 100 99 96 98 99 100 100 100 100 100
96 98 92 98 97 98 98 99 97 96 92 98 91 82 88 96 96 94 94 93 93 96 96 96 96 96 100 98 100 98 99 96 96 99 100 100 100 99 100 100 100 99 100 100 99 98 100 100 100 100 99 100 100 100
98 95 94 98 98 98 93 88 82 84 94 90 93 92 99 97 97 95 95 95 95 95 93 98 99 100 98 100 100 100 100 100 100 100 100 100 100 100 100 100 100 100 100 100 100 100 100 100 100 100 100 100 100 100
96 98 96 97 97 96 97 97 97 99 100 99 100 100 99 97 100 99 98 98 96 98 100 100 100 100 100 100 100 100 99 100 100 100 100 100 100 100 100 100 100 100 100 100 100 100 100 100 100 100 100 99 99 100
93 94 96 98 97 98 97 95 99 98 100 100 99 99 100 99 100 98 98 100 99 100 100 100 100 99 100 100 100 100 100 100 100 100 100 100 100 100 100 100 100 100 100 100 100 100 100 100 100 100 100 100 100 100
Wind_Speed
36 36 37 37 37 37 35 34 32 30 28 28 27 27 25 26 29 16 8 7 3 4 6 4 4 8 14 16 7 4 5 3 4 5 4 4 4 6 5 7 9 9 7 4 3 4 7 6 2 7 7 3 6 5
34 35 35 35 35 33 31 30 28 25 27 26 27 26 26 28 28 20 4 5 4 2 5 1 8 8 10 18 8 4 5 6 6 5 2 3 2 2 5 3 2 2 9 9 10 8 5 3 4 3 5 8 4 7
30 31 31 29 28 28 27 25 23 24 21 30 28 23 25 25 23 14 5 4 1 5 6 3 4 4 4 4 9 7 2 5 4 5 7 4 2 5 5 5 4 2 5 5 5 2 3 4 4 5 5 9 5 5
25 25 25 25 25 25 24 22 22 22 21 26 26 25 23 22 24 12 6 3 4 3 3 4 4 3 6 2 4 5 9 6 7 4 4 4 4 4 5 4 6 6 8 7 4 3 9 5 3 8 10 10 13 12
20 21 21 21 21 23 23 23 23 24 26 27 25 22 21 19 21 7 5 8 2 4 3 3 5 5 5 2 11 11 11 9 1 4 4 3 3 4 1 4 1 3 7 7 7 13 6 4 5 9 13 10 10 17
21 22 22 23 23 23 22 22 22 22 24 23 21 21 19 20 20 7 3 6 7 1 3 3 3 6 8 8 14 14 5 5 3 4 2 4 5 3 5 3 2 2 1 5 7 8 13 12 9 9 15 12 13 15
17 18 18 18 18 18 19 19 20 22 22 21 19 20 20 21 10 4 5 2 17 5 2 3 2 3 3 5 4 3 6 5 4 3 4 2 5 3 3 4 5 4 11 15 19 19 11 1 8 10 16 14 15 14
15 15 16 15 15 16 17 18 20 21 20 20 18 17 17 15 5 1 1 7 11 4 2 2 3 2 6 4 3 3 3 4 5 2 4 1 5 3 3 3 8 9 12 11 6 9 14 16 13 13 13 14 15 12
14 14 16 18 19 19 18 19 20 21 21 20 20 18 7 3 4 3 8 9 2 4 4 2 4 2 4 3 2 4 3 4 1 3 4 4 1 3 4 12 13 13 7 14 15 18 16 15 14 12 13 11 15 12
14 18 19 18 18 19 19 18 20 19 19 20 7 6 4 4 18 12 4 3 4 3 1 2 1 3 3 2 3 3 2 2 3 4 2 4 2 1 1 4 7 13 18 19 19 11 13 13 13 12 11 10 11 11
17 17 17 15 11 11 14 16 16 13 14 6 5 2 5 4 6 3 2 3 2 2 1 2 3 4 3 5 4 1 3 2 3 2 5 2 2 3 3 6 10 14 14 6 11 13 11 14 14 15 13 12 11 10
16 16 15 16 16 17 18 18 21 11 7 5 6 5 3 5 3 5 2 2 2 3 1 3 3 3 2 3 5 2 3 2 3 2 4 3 1 7 7 7 8 11 12 13 15 17 16 15 14 15 13 12 11 11
18 18 20 20 21 23 26 27 30 18 10 4 5 6 4 1 3 5 4 0 3 2 1 2 3 3 3 4 4 3 3 3 2 3 3 3 5 8 9 9 11 11 15 17 17 17 17 16 14 15 14 10 12 11
30 28 21 17 19 22 26 32 25 4 3 5 5 6 2 3 3 1 1 2 2 2 5 5 4 3 2 4 3 3 2 2 3 2 5 5 11 10 9 10 14 12 12 15 15 16 16 16 14 12 11 9 11 11
25 24 25 18 14 14 11 4 7 4 4 5 4 6 5 1 3 1 1 1 3 2 3 4 4 4 3 4 2 3 2 1 4 4 2 5 10 13 12 12 13 12 11 12 12 14 14 14 13 12 9 9 10 9
11 16 11 13 15 8 6 7 5 3 5 6 9 4 2 4 3 3 3 3 4 2 2 4 4 3 2 4 2 1 6 5 2 1 4 10 12 12 12 12 11 11 12 12 11 12 12 11 12 12 9 8 6 8
16 6 15 9 4 11 11 5 5 9 6 6 5 4 3 4 3 3 3 3 3 3 3 3 5 1 3 3 2 3 2 2 1 3 5 11 13 13 13 13 12 12 13 12 12 11 11 11 10 10 10 8 7 8
5 4 10 6 5 8 5 7 6 6 7 4 3 3 3 4 2 2 3 2 2 2 3 3 3 5 4 3 2 1 1 3 5 7 8 11 14 13 12 13 12 12 12 11 11 11 10 9 8 6 9 8 7 7
8 10 12 13 8 7 5 5 4 6 4 1 2 2 3 3 6 4 5 7 5 5 5 5 7 4 3 3 2 3 3 3 7 7 9 10 12 12 12 12 11 11 11 10 10 7 7 8 6 5 5 5 4 3
9 18 17 14 7 5 6 4 3 5 3 2 2 5 4 4 3 7 9 7 6 5 6 6 4 3 2 3 3 4 4 4 8 10 8 8 8 12 11 10 9 11 10 11 9 9 7 7 5 5 4 3 3 1
10 8 13 9 6 7 5 3 4 3 3 3 1 3 5 7 10 8 7 6 8 6 5 4 5 6 8 9 6 6 8 7 7 7 8 8 7 9 8 7 8 7 7 6 7 7 6 5 4 3 3 2 1 1
3 9 4 7 6 5 5 5 3 2 3 2 2 3 3 4 5 8 5 8 6 6 5 5 8 8 11 14 10 11 10 13 12 11 11 10 8 8 7 7 8 7 7 6 6 5 5 3 3 3 3 2 2 3
6 7 6 7 8 7 2 2 4 3 3 2 3 4 3 3 4 2 6 6 5 6 6 5 8 11 12 13 15 17 14 13 10 9 9 9 9 8 8 8 7 7 7 6 5 4 4 3 4 3 3 3 3 3
6 7 7 6 6 2 3 5 3 3 4 3 3 4 2 4 3 5 5 4 5 8 10 10 6 7 9 13 11 10 9 9 10 9 8 8 8 8 8 8 8 7 7 6 5 4 4 4 4 3 3 3 3 1
11 10 7 8 5 6 6 5 5 4 4 5 4 3 2 3 5 5 4 4 6 7 8 7 8 8 7 7 7 8 11 8 8 9 8 7 7 6 7 7 8 7 5 5 5 5 4 4 4 4 4 3 6 6
10 5 5 6 4 4 2 3 4 4 3 3 2 1 4 5 6 5 4 4 3 5 6 6 5 6 8 7 6 6 7 6 7 9 8 7 6 4 4 4 4 4 4 3 2 3 3 3 3 6 4 6 4 4
7 6 3 2 2 2 5 4 5 6 5 5 3 5 5 7 5 3 3 4 2 3 5 6 7 7 7 6 6 7 7 8 9 8 6 8 8 7 5 4 4 0 1 3 3 2 1 2 2 3 3 4 3 3
4 5 5 6 5 5 5 5 6 5 4 4 5 7 5 4 3 3 3 3 4 5 6 7 7 7 7 6 6 4 5 3 6 7 8 8 7 7 5 3 3 3 1 1 1 1 1 3 3 3 3 4 5 4
4 4 5 8 6 7 6 5 4 3 5 2 5 4 3 4 4 3 4 4 5 5 5 5 5 5 6 7 7 7 7 5 5 7 6 3 4 5 6 5 4 4 3 3 6 4 4 1 2 3 4 4 4 3
5 3 5 5 6 6 5 4 4 4 5 3 5 9 6 3 5 5 5 6 7 7 5 6 5 5 4 4 3 6 5 4 5 5 4 0 3 3 2 3 4 4 4 3 4 4 7 5 5 5 5 5 3 3
2 4 6 5 5 3 5 8 10 9 5 7 6 6 4 4 3 7 8 6 5 4 5 5 5 4 5 4 3 3 3 3 3 3 3 2 1 2 3 3 2 2 2 3 3 3 3 3 3 4 6 6 5 3
4 4 4 4 4 5 4 2 4 4 3 4 2 3 3 5 4 3 3 2 5 5 3 3 4 2 1 1 3 2 4 2 3 2 2 0 1 3 3 3 3 3 3 4 4 4 4 4 3 5 5 7 6 6
5 5 5 4 3 1 3 5 4 3 4 3 2 3 2 5 3 3 1 3 4 3 0 2 2 1 3 6 4 2 2 1 4 6 4 4 1 3 3 3 2 2 3 3 3 3 4 4 4 5 5 5 5 5
Wind_Direction
119 125 132 139 145 150 154 161 167 173 177 177 177 183 184 209 197 177 179 139 131 271 307 319 179 168 195 206 174 169 83 342 72 94 136 216 143 204 113 168 176 152 136 164 101 70 281 197 118 160 197 111 136 110
109 120 127 133 141 147 153 159 166 174 177 182 183 188 198 179 173 179 142 151 247 285 261 273 260 265 238 192 147 195 169 154 167 104 101 16 311 76 141 215 134 123 172 174 173 208 238 318 155 90 126 125 124 119
108 118 129 139 142 146 151 158 165 171 191 173 169 173 154 167 171 167 96 148 145 286 290 256 228 299 333 183 156 130 297 157 173 171 151 171 239 128 144 233 112 133 143 128 111 63 103 80 65 84 109 110 97 106
108 117 126 133 138 144 153 154 159 155 154 149 156 159 164 167 165 146 147 173 205 264 210 289 283 289 295 230 119 131 129 65 88 66 92 139 174 178 205 173 139 195 133 135 76 45 85 23 85 114 95 95 85 59
114 126 136 141 146 147 149 153 153 154 147 145 151 147 147 156 156 101 99 207 285 330 304 278 288 338 341 322 103 106 105 94 99 82 71 216 227 128 342 70 193 189 165 155 200 182 135 144 113 124 103 101 100 104
100 105 106 109 115 121 126 129 130 131 137 143 142 143 143 135 138 144 135 217 215 171 313 335 311 355 9 74 79 72 117 104 84 105 66 338 288 116 105 162 284 303 117 164 142 93 101 101 92 111 105 103 98 98
102 104 106 109 113 115 119 125 128 137 144 143 137 134 143 152 161 164 146 235 158 113 297 305 345 254 281 58 44 40 38 62 120 129 130 278 274 48 94 155 172 94 103 110 116 113 95 165 127 106 105 106 100 92
115 118 119 123 125 125 127 129 132 133 139 140 134 136 153 163 113 286 212 133 133 153 252 173 248 83 7 61 86 346 69 41 16 148 56 149 307 73 35 134 121 111 107 105 73 82 109 117 111 108 111 115 102 92
141 136 136 136 131 127 131 132 131 133 140 142 141 136 137 206 162 201 57 127 124 222 187 111 121 182 20 66 78 45 64 82 345 135 200 152 319 196 205 163 151 146 140 127 104 107 115 116 121 121 118 110 108 104
143 145 140 135 133 133 130 129 127 127 132 129 119 196 162 173 120 83 351 351 3 348 290 112 97 113 80 67 53 86 14 124 135 238 89 77 201 243 42 117 132 126 125 125 113 118 124 124 130 127 117 113 109 109
154 145 149 142 157 162 149 133 137 110 132 193 200 83 79 96 63 91 241 216 202 34 355 104 111 120 15 114 129 86 136 79 119 228 139 146 198 217 116 91 127 134 142 131 124 125 127 129 129 121 111 105 104 104
179 167 173 168 175 193 179 157 147 191 180 203 114 111 106 81 115 179 208 328 69 166 309 104 95 106 47 76 91 0 112 88 163 157 101 184 225 127 109 88 98 128 128 122 121 119 118 117 117 113 112 108 104 102
106 141 157 167 157 154 161 170 179 208 147 182 60 58 67 7 104 158 195 255 141 174 175 114 78 100 59 51 60 69 69 187 76 60 200 205 121 111 109 101 83 89 101 106 110 106 105 105 107 115 112 106 107 100
70 73 92 116 139 149 157 166 183 224 87 85 125 107 137 121 90 108 137 90 253 117 103 100 75 84 87 72 95 96 247 105 84 135 220 168 142 132 122 111 111 102 103 108 109 107 107 107 101 99 102 108 111 108
71 61 53 51 76 97 136 136 67 56 69 65 58 64 50 118 81 12 264 77 339 111 81 71 61 82 68 99 127 194 110 117 190 230 160 130 127 123 113 116 113 110 109 104 108 107 106 108 108 105 103 106 109 112
55 74 42 40 52 94 130 82 39 70 51 45 35 55 291 72 36 34 12 45 5 36 51 61 92 82 93 124 145 152 137 193 178 173 124 119 117 122 121 118 111 110 111 110 111 112 110 112 118 115 110 111 115 123
53 36 333 0 354 87 80 93 44 46 52 35 20 8 5 55 50 21 12 359 316 70 76 81 74 95 122 78 69 14 59 5 348 55 98 117 120 120 110 106 111 114 113 114 113 112 110 108 114 117 124 130 127 130
50 316 6 7 16 49 42 36 63 61 63 30 49 347 18 23 24 18 331 317 15 80 77 87 103 50 33 47 53 82 51 48 61 83 99 106 106 106 107 109 109 110 108 106 108 113 119 115 112 105 125 126 112 119
50 27 20 41 66 82 66 34 41 85 65 43 26 354 38 42 27 22 17 10 38 36 60 38 48 33 8 5 28 53 35 62 91 81 80 82 90 97 100 101 103 102 100 101 100 96 94 93 92 88 87 93 94 101
35 28 13 22 55 79 74 41 44 73 67 60 27 38 46 31 359 33 37 23 33 57 50 45 21 332 309 344 47 75 68 89 103 93 79 78 87 91 90 99 103 105 99 97 91 93 95 84 71 74 81 91 98 80
25 346 7 26 47 56 75 50 62 70 88 73 359 49 76 57 42 35 29 349 47 37 62 31 21 25 37 43 39 65 63 70 76 87 101 93 82 91 94 90 92 92 95 95 95 83 73 79 72 84 84 68 37 259
335 11 44 23 69 57 62 18 82 84 76 96 64 53 70 67 52 40 34 37 53 23 22 35 30 31 41 37 38 50 68 76 74 74 68 76 81 76 72 72 81 78 72 79 93 96 93 79 71 69 59 7 23 47
12 35 37 30 62 48 358 10 54 30 78 64 47 61 55 59 69 65 66 31 38 357 2 50 49 44 49 40 49 46 49 68 70 68 70 71 69 66 71 69 69 82 83 75 87 91 89 68 46 58 45 34 27 23
27 51 43 42 51 74 12 25 36 49 53 52 54 64 43 88 95 68 67 51 2 356 18 27 35 54 50 46 40 40 43 59 69 64 60 75 77 67 66 65 56 53 58 63 61 56 51 48 46 46 34 28 8 344
62 357 58 2 351 49 40 22 11 50 59 36 61 46 34 55 66 62 58 34 9 5 4 30 38 41 57 56 44 40 38 50 68 69 36 66 87 89 78 70 60 48 38 56 46 50 36 30 31 28 25 26 357 333
68 350 42 6 350 60 45 54 34 27 84 60 70 62 62 67 64 57 51 13 14 3 2 22 44 57 53 42 48 34 29 43 69 70 42 36 41 78 92 88 78 61 31 58 72 55 31 22 30 23 3 354 358 16
50 10 341 347 324 21 46 48 37 55 36 29 8 35 66 65 67 75 97 17 38 17 27 35 50 58 60 55 49 42 43 51 66 79 80 64 59 55 73 88 75 56 23 67 74 104 78 341 315 307 307 311 285 273
47 40 18 340 43 18 67 47 36 28 2 344 58 40 80 86 72 41 50 105 76 70 62 56 53 56 57 45 32 25 20 38 89 94 89 66 56 42 21 30 28 19 26 73 231 250 230 249 256 270 264 268 286 287
29 343 55 15 42 42 34 42 21 25 346 25 90 82 85 54 6 42 36 54 69 71 72 78 72 70 65 57 46 39 37 35 75 65 58 19 1 351 2 17 9 2 4 354 332 334 318 295 304 258 264 250 267 290
344 3 80 46 60 50 11 43 57 20 28 76 94 101 78 64 29 21 42 57 63 67 60 58 45 54 62 75 54 45 19 49 71 115 119 64 265 286 343 3 348 340 343 357 350 328 335 4 345 352 352 336 346 345
342 37 53 52 71 56 124 106 74 56 45 57 48 86 93 115 61 32 34 45 66 62 68 55 43 27 70 53 81 74 21 337 52 97 144 172 222 333 323 315 300 328 357 4 355 345 347 347 340 330 320 314 291 275
23 31 110 76 100 157 188 76 70 82 51 64 40 68 34 58 58 359 336 47 55 52 28 92 77 344 251 98 72 81 88 19 352 313 254 162 301 278 286 311 334 7 14 5 356 355 4 9 353 358 354 347 336 323
31 26 30 58 78 150 267 95 54 75 36 59 58 124 96 123 129 202 104 65 127 148 171 281 289 323 92 99 100 65 30 332 345 5 25 100 257 310 320 310 321 337 339 328 338 356 5 360 346 345 355 356 347 339